Powrót do katalogu

CZ-6A DEB

AktywnyPO
NORAD 61346·DEBRIS·🇨🇳 China

Wystrzelony Aug 6, 2024 z Taiyuan Satellite Launch Center

Loading…

Następne Przeloty (najbliższe 24 godziny)

TLE

ŚwieżeSource: Space-Track

Epoka: Sep 14, 2026, 10:36 UTC

1 61346U 24140VK  26257.44225527  .00021436  00000-0  19444-2 0  9994
2 61346  88.9502 253.0066 0039097 236.1678 123.5830 14.94634298108323

Śledź CZ-6A DEB w czasie rzeczywistym z AllMySat

Download on the App Store